FENGYUN 1C DEB, 33640

Orbit data source: Space-Track

FENGYUN 1C DEB, 33640 is space debris in SSO originally from a launch on Mon, 10 May 1999 UTC launched from the Taiyaun Space Center, China (TSC). Fengyun 1C debris stems from the Chinese weather satellite Fengyun-1C, which was intentionally destroyed by a Chinese anti-satellite missile in 2007. This event dramatically increased the amount of space debris, with thousands of trackable fragments posing hazards to satellites and human spaceflight. The Fengyun 1C debris cloud has become a focal point in discussions about space sustainability and the need for international regulations to prevent the creation of new debris.

Loading next visibility...
Identifier
33640, 1999-025DDZ
Orbit
SSO
Country
Flag of CNCN / PRC
Related business
Manufacturer
Unknown
Mission
Spacecraft
Bus & Motor
Unknown
Mass
Unknown
Launch date (UTC)
1999-05-10 (27 years ago)
Launch vehicle
Unknown
Launch site
Taiyaun Space Center, China (TSC)
Object type
Payload
Rocket body
Debris
Shape & HBR
Unknown shape, 0.1 m
Radar Cross Section
Small (<0.1 m²)

Expand to show TLE details & history
Last TLE update: 19 hours ago

TLE from 19 hours ago
0 FENGYUN 1C DEB
1 33640U 99025DDZ 26036.30181660  .00004203  00000-0  11298-2 0  9995
2 33640  98.8473 346.3770 0090581 357.8492   2.2296 14.46203710931314
Epoch: 2026-02-05T07:14Z
TLE epoch observation values (Epoch: 2026-02-05T07:14:36.954Z)
Latitude
-0.00006°
Longitude
102.26703°
Altitude
676.598 km
Speed
7.552 km/s
True Right ascension
23h 05m 30s
True Declination
0° 00' 00"
Sunlit
Object was in daylight at epoch
Visualization orbit readout
Latitude
Unknown
Longitude
Unknown
Altitude
Unknown
Speed
Unknown
Apparent Right ascension
Unknown
Apparent Declination
Unknown
Sunlit
N/A
Visualization observer readout
Local Sidereal Time
04:03:58
Azimuth
Unknown
Elevation
Unknown
Doppler factor
Unknown
Orbital elements
Apogee altitude
799.638 km
Perigee altitude
670.771 km
Semi-major axis
7,113.342 km
Eccentricity
0.00906
Inclination
98.8473°
RAAN
346.377°
Arg. of periapsis
357.8492°
True anomaly
2.27044°
Mean anomaly
2.2296°
Eccentric anomaly
2.24998°
Mean motion
3.6177 °/min
Orbital period
99.51 mins
BSTAR
0.0011298
Loading maneuver chart data...
Computing Atmospheric mass density...

Documentation

Showing up to 5 results
|